CW8859 Weather Reports


time (UTC)temp
C
wind
direction
speed
KPH
gust
KPH
rain 1hr
cm
rain 24hr
cm
rain mn
cm
humidity
%
barometer
mb
20260508014557 -17 0.0 0.0 0.00 0.00 0.00 1009.9
20260508013042 -17 0.0 0.0 0.00 0.00 0.00 1009.9
20260508011535 -17 0.0 0.0 0.00 0.00 0.00 1010.0
20260508010034 17 22 0.0 0.0 0.00 0.00 0.00 55 1009.9
20260508004528 18 22 0.0 0.0 0.00 0.00 0.00 52 1010.0
20260508003028 19 22 0.0 0.0 0.00 0.00 0.00 48 1010.0
20260508001528 20 22 0.0 0.0 0.00 0.00 0.00 46 1010.0
20260508000026 20 21 0.0 0.0 0.00 0.00 0.00 45 1010.0
20260507234526 21 22 0.0 0.0 0.00 0.00 0.00 43 1010.0
20260507233033 21 22 0.0 0.0 0.00 0.00 0.00 42 1010.0
20260507231512 21 22 0.0 0.0 0.00 0.00 0.00 42 1009.9
20260507230012 21 22 0.0 0.0 0.00 0.00 0.00 42 1010.0
20260507224508 21 22 0.0 0.0 0.00 0.00 0.00 41 1010.1
20260507223010 21 22 0.0 0.0 0.00 0.00 0.00 41 1010.3
20260507221510 21 18 0.0 0.0 0.00 0.00 0.00 39 1010.4
20260507220004 21 22 0.0 0.0 0.00 0.00 0.00 42 1010.5
20260507214504 21 21 0.0 0.0 0.00 0.00 0.00 39 1010.6
20260507213053 22 19 0.0 0.0 0.00 0.00 0.00 39 1010.7
20260507211551 22 21 0.0 0.0 0.00 0.00 0.00 38 1010.8
20260507210057 22 21 0.0 0.0 0.00 0.00 0.00 39 1011.0
20260507204547 22 26 0.0 0.0 0.00 0.00 0.00 38 1011.3
20260507203102 22 22 0.0 0.0 0.00 0.00 0.00 38 1011.5
20260507201554 21 22 0.0 0.0 0.00 0.00 0.00 38 1011.8
20260507200058 21 19 0.0 0.0 0.00 0.00 0.00 39 1012.1
20260507194539 21 17 0.0 0.0 0.00 0.00 0.00 39 1012.4
20260507193026 21 17 0.0 0.0 0.00 0.00 0.00 41 1012.6
20260507191524 21 55 0.0 0.0 0.00 0.00 0.00 40 1012.7
20260507190023 21 25 0.0 0.0 0.00 0.00 0.00 38 1013.0
20260507184522 22 21 0.0 0.0 0.00 0.00 0.00 36 1013.0
20260507183021 23 22 0.0 0.0 0.00 0.00 0.00 36 1013.0
20260507181524 22 34 0.0 0.0 0.00 0.00 0.00 36 1013.1
20260507180022 22 22 0.0 0.0 0.00 0.00 0.00 38 1013.3
20260507174515 22 19 0.0 0.0 0.00 0.00 0.00 38 1013.5
20260507173003 22 20 0.0 0.0 0.00 0.00 0.00 36 1013.7
20260507171605 22 21 0.0 0.0 0.00 0.00 0.00 35 1013.9
20260507170103 22 20 0.0 0.0 0.00 0.00 0.00 35 1014.1
20260507164600 21 22 0.0 0.0 0.00 0.00 0.00 36 1014.3
20260507163052 21 21 0.0 0.0 0.00 0.00 0.00 37 1014.4
20260507161550 22 22 0.0 0.0 0.00 0.00 0.00 37 1014.5
20260507160049 21 22 0.0 0.0 0.00 0.00 0.00 38 1014.7
20260507154552 20 22 0.0 0.0 0.00 0.00 0.00 38 1014.6
20260507153033 20 22 0.0 0.0 0.00 0.00 0.00 38 1014.8
20260507151528 20 19 0.0 0.0 0.00 0.00 0.00 39 1014.9
20260507150027 20 19 0.0 0.0 0.00 0.00 0.00 39 1015.0
20260507144528 19 17 0.0 0.0 0.00 0.00 0.00 43 1015.2
20260507143022 18 15 0.0 0.0 0.00 0.00 0.00 47 1015.4
20260507141515 17 15 0.0 0.0 0.00 0.00 0.00 50 1015.4
20260507140010 16 15 0.0 0.0 0.00 0.00 0.00 54 1015.5
20260507134509 15 22 0.0 0.0 0.00 0.00 0.00 62 1015.7
20260507133100 12 22 0.0 0.0 0.00 0.00 0.00 75 1015.9
20260507131549 10 24 0.0 0.0 0.00 0.00 0.00 86 1016.1
20260507130018 7 25 0.0 0.0 0.00 0.00 0.00 75 1016.1
20260507124517 6 57 0.0 0.0 0.00 0.00 0.00 76 1016.0
20260507123111 5 57 0.0 0.0 0.00 0.00 0.00 77 1016.0
20260507121604 -17 0.0 0.0 0.00 0.00 0.00 1015.8
20260507120054 -17 0.0 0.0 0.00 0.00 0.00 1015.7
20260507114528 -17 0.0 0.0 0.00 0.00 0.00 1015.6
20260507113024 -17 0.0 0.0 0.00 0.00 0.00 1015.6
20260507111520 -17 0.0 0.0 0.00 0.00 0.00 1015.5
20260507110016 -17 0.0 0.0 0.00 0.00 0.00 1015.6
20260507104511 -17 0.0 0.0 0.00 0.00 0.00 1015.5
20260507103008 -17 0.0 0.0 0.00 0.00 0.00 1015.6
20260507101507 -17 0.0 0.0 0.00 0.00 0.00 1015.7
20260507100103 -17 0.0 0.0 0.00 0.00 0.00 1015.7
20260507094545 -17 0.0 0.0 0.00 0.00 0.00 1015.6
20260507093044 -17 0.0 0.0 0.00 0.00 0.00 1015.5
20260507091543 -17 0.0 0.0 0.00 0.00 0.00 1015.5
20260507090038 -17 0.0 0.0 0.00 0.00 0.00 1015.5
20260507084529 -17 0.0 0.0 0.00 0.00 0.00 1015.5
20260507083031 -17 0.0 0.0 0.00 0.00 0.00 1015.4
20260507081519 -17 0.0 0.0 0.00 0.00 0.00 1015.5
20260507080019 -17 0.0 0.0 0.00 0.00 0.00 1015.6
20260507074559 -17 0.0 0.0 0.00 0.00 0.00 1015.7
20260507073105 -17 0.0 0.0 0.00 0.00 0.00 1015.8
20260507071550 -17 0.0 0.0 0.00 0.00 0.00 1016.0
20260507070046 -17 0.0 0.0 0.00 0.00 0.00 1016.0
20260507064542 -17 0.0 0.0 0.00 0.00 0.00 1016.3
20260507063037 -17 0.0 0.0 0.00 0.00 0.00 1016.2
20260507061533 -17 0.0 0.0 0.00 0.00 0.00 1016.2
20260507060029 -17 0.0 0.0 0.00 0.00 0.00 1016.3
20260507054518 -17 0.0 0.0 0.00 0.00 0.00 1016.4
20260507053008 -17 0.0 0.0 0.00 0.00 0.00 1016.3
20260507051504 -17 0.0 0.0 0.00 0.00 0.00 1016.4
20260507050100 -17 0.0 0.0 0.00 0.00 0.00 1016.5
20260507044555 -17 0.0 0.0 0.00 0.00 0.00 1016.5
20260507043051 -17 0.0 0.0 0.00 0.00 0.00 1016.4
20260507041548 -17 0.0 0.0 0.00 0.00 0.00 1016.4
20260507040043 -17 0.0 0.0 0.00 0.00 0.00 1016.5
20260507034520 -17 0.0 0.0 0.00 0.00 0.00 1016.5
20260507033016 -17 0.0 0.0 0.00 0.00 0.00 1016.6
20260507031600 -17 0.0 0.0 0.00 0.00 0.00 1016.5
20260507030056 -17 0.0 0.0 0.00 0.00 0.00 1016.4
20260507024604 -17 0.0 0.0 0.00 0.00 0.00 1016.4
20260507023050 -17 0.0 0.0 0.00 0.00 0.00 1016.2
20260507021546 -17 0.0 0.0 0.00 0.00 0.00 1016.0
20260507020057 -17 0.0 0.0 0.00 0.00 0.00 1015.9